date,time,SUV Intensity [MED/Hr],UV Index,Daily total [MED],Since Last [MED]
04/05/2023,00:01:22,-0.001,0.0,0.0,0.0
04/05/2023,00:02:21,0.001,0.0,0.0,0.0
04/05/2023,00:03:22,0.000,0.0,0.0,0.0
04/05/2023,00:04:22,-0.001,0.0,0.0,0.0
04/05/2023,00:05:21,0.000,0.0,0.0,0.0
04/05/2023,00:06:22,-0.001,0.0,0.0,0.0
04/05/2023,00:07:22,0.000,0.0,0.0,0.0
04/05/2023,00:08:22,-0.001,0.0,0.0,0.0
04/05/2023,00:09:22,0.000,0.0,0.0,0.0
04/05/2023,00:10:21,0.000,0.0,0.0,0.0
04/05/2023,00:11:21,0.000,0.0,0.0,0.0
04/05/2023,00:12:21,0.000,0.0,0.0,0.0
04/05/2023,00:13:21,-0.000,0.0,0.0,0.0
04/05/2023,00:14:21,0.000,0.0,0.0,0.0
04/05/2023,00:15:22,0.000,0.0,0.0,0.0
04/05/2023,00:16:22,0.000,0.0,0.0,0.0
04/05/2023,00:17:22,0.000,0.0,0.0,0.0
04/05/2023,00:18:21,0.000,0.0,0.0,0.0
04/05/2023,00:19:21,-0.000,0.0,0.0,0.0
04/05/2023,00:20:21,0.000,0.0,0.0,0.0
04/05/2023,00:21:22,0.000,0.0,0.0,0.0
04/05/2023,00:22:22,0.000,0.0,0.0,0.0
04/05/2023,00:23:22,0.001,0.0,0.0,0.0
04/05/2023,00:24:22,0.000,0.0,0.0,0.0
04/05/2023,00:25:22,0.000,0.0,0.0,0.0
04/05/2023,00:26:21,0.000,0.0,0.0,0.0
04/05/2023,00:27:22,0.000,0.0,0.0,0.0
04/05/2023,00:28:22,0.000,0.0,0.0,0.0
04/05/2023,00:29:21,-0.000,0.0,0.0,0.0
04/05/2023,00:30:26,0.001,0.0,0.0,0.0
04/05/2023,00:31:22,0.000,0.0,0.0,0.0
04/05/2023,00:32:22,0.000,0.0,0.0,0.0
04/05/2023,00:33:22,-0.001,0.0,0.0,0.0
04/05/2023,00:34:22,0.000,0.0,0.0,0.0
04/05/2023,00:35:22,0.000,0.0,0.0,0.0
04/05/2023,00:36:22,0.000,0.0,0.0,0.0
04/05/2023,00:37:21,0.000,0.0,0.0,0.0
04/05/2023,00:38:22,0.000,0.0,0.0,0.0
04/05/2023,00:39:22,0.000,0.0,0.0,0.0
04/05/2023,00:40:22,0.000,0.0,0.0,0.0
04/05/2023,00:41:22,0.001,0.0,0.0,0.0
04/05/2023,00:42:21,0.000,0.0,0.0,0.0
04/05/2023,00:43:21,0.000,0.0,0.0,0.0
04/05/2023,00:44:22,0.001,0.0,0.0,0.0
04/05/2023,00:45:22,0.000,0.0,0.0,0.0
04/05/2023,00:46:22,0.001,0.0,0.0,0.0
04/05/2023,00:47:22,0.000,0.0,0.0,0.0
04/05/2023,00:48:21,0.001,0.0,0.0,0.0
04/05/2023,00:49:22,0.000,0.0,0.0,0.0
04/05/2023,00:50:21,0.000,0.0,0.0,0.0
04/05/2023,00:51:22,-0.001,0.0,0.0,0.0
04/05/2023,00:52:22,0.001,0.0,0.0,0.0
04/05/2023,00:53:22,0.000,0.0,0.0,0.0
04/05/2023,00:54:22,0.000,0.0,0.0,0.0
04/05/2023,00:55:21,0.001,0.0,0.0,0.0
04/05/2023,00:56:21,0.000,0.0,0.0,0.0
04/05/2023,00:57:21,0.000,0.0,0.0,0.0
04/05/2023,00:58:22,0.001,0.0,0.0,0.0
04/05/2023,00:59:22,0.001,0.0,0.0,0.0
04/05/2023,01:00:22,0.000,0.0,0.0,0.0
04/05/2023,01:01:21,0.000,0.0,0.0,0.0
04/05/2023,01:02:22,0.000,0.0,0.0,0.0
04/05/2023,01:03:22,0.000,0.0,0.0,0.0
04/05/2023,01:04:22,0.000,0.0,0.0,0.0
04/05/2023,01:05:22,0.000,0.0,0.0,0.0
04/05/2023,01:06:21,0.000,0.0,0.0,0.0
04/05/2023,01:07:21,0.000,0.0,0.0,0.0
04/05/2023,01:08:22,0.000,0.0,0.0,0.0
04/05/2023,01:09:22,0.000,0.0,0.0,0.0
04/05/2023,01:10:22,0.000,0.0,0.0,0.0
04/05/2023,01:11:22,0.000,0.0,0.0,0.0
04/05/2023,01:12:21,0.000,0.0,0.0,0.0
04/05/2023,01:13:22,-0.000,0.0,0.0,0.0
04/05/2023,01:14:22,0.000,0.0,0.0,0.0
04/05/2023,01:15:21,0.001,0.0,0.0,0.0
04/05/2023,01:16:22,0.001,0.0,0.0,0.0
04/05/2023,01:17:21,0.000,0.0,0.0,0.0
04/05/2023,01:18:21,0.000,0.0,0.0,0.0
04/05/2023,01:19:21,0.001,0.0,0.0,0.0
04/05/2023,01:20:21,0.000,0.0,0.0,0.0
04/05/2023,01:21:22,0.001,0.0,0.0,0.0
04/05/2023,01:22:22,0.000,0.0,0.0,0.0
04/05/2023,01:23:21,0.000,0.0,0.0,0.0
04/05/2023,01:24:21,0.000,0.0,0.0,0.0
04/05/2023,01:25:21,0.001,0.0,0.0,0.0
04/05/2023,01:26:22,0.000,0.0,0.0,0.0
04/05/2023,01:27:22,0.000,0.0,0.0,0.0
04/05/2023,01:28:22,0.001,0.0,0.0,0.0
04/05/2023,01:29:21,0.000,0.0,0.0,0.0
04/05/2023,01:30:22,0.000,0.0,0.0,0.0
04/05/2023,01:31:22,0.000,0.0,0.0,0.0
04/05/2023,01:32:22,0.000,0.0,0.0,0.0
04/05/2023,01:33:22,0.000,0.0,0.0,0.0
04/05/2023,01:34:21,0.001,0.0,0.0,0.0
04/05/2023,01:35:21,0.001,0.0,0.0,0.0
04/05/2023,01:36:22,0.000,0.0,0.0,0.0
04/05/2023,01:37:22,0.000,0.0,0.0,0.0
04/05/2023,01:38:21,0.001,0.0,0.0,0.0
04/05/2023,01:39:21,0.001,0.0,0.0,0.0
04/05/2023,01:40:22,0.000,0.0,0.0,0.0
04/05/2023,01:41:22,0.000,0.0,0.0,0.0
04/05/2023,01:42:21,0.001,0.0,0.0,0.0
04/05/2023,01:43:21,0.000,0.0,0.0,0.0
04/05/2023,01:44:21,0.000,0.0,0.0,0.0
04/05/2023,01:45:21,0.000,0.0,0.0,0.0
04/05/2023,01:46:21,-0.000,0.0,0.0,0.0
04/05/2023,01:47:22,0.000,0.0,0.0,0.0
04/05/2023,01:48:22,0.001,0.0,0.0,0.0
04/05/2023,01:49:21,0.000,0.0,0.0,0.0
04/05/2023,01:50:21,0.000,0.0,0.0,0.0
04/05/2023,01:51:22,0.000,0.0,0.0,0.0
04/05/2023,01:52:22,0.001,0.0,0.0,0.0
04/05/2023,01:53:21,0.001,0.0,0.0,0.0
04/05/2023,01:54:21,0.001,0.0,0.0,0.0
04/05/2023,01:55:21,0.000,0.0,0.0,0.0
04/05/2023,01:56:21,0.000,0.0,0.0,0.0
04/05/2023,01:57:21,0.000,0.0,0.0,0.0
04/05/2023,01:58:21,-0.001,0.0,0.0,0.0
04/05/2023,01:59:22,0.000,0.0,0.0,0.0
04/05/2023,02:00:22,0.001,0.0,0.0,0.0
04/05/2023,02:01:22,0.000,0.0,0.0,0.0
04/05/2023,02:02:22,0.000,0.0,0.0,0.0
04/05/2023,02:03:22,0.000,0.0,0.0,0.0
04/05/2023,02:04:20,0.000,0.0,0.0,0.0
04/05/2023,02:05:21,0.000,0.0,0.0,0.0
04/05/2023,02:06:22,0.001,0.0,0.0,0.0
04/05/2023,02:07:22,0.000,0.0,0.0,0.0
04/05/2023,02:08:23,0.000,0.0,0.0,0.0
04/05/2023,02:09:22,-0.001,0.0,0.0,0.0
04/05/2023,02:10:22,0.000,0.0,0.0,0.0
04/05/2023,02:11:22,0.001,0.0,0.0,0.0
04/05/2023,02:12:22,0.000,0.0,0.0,0.0
04/05/2023,02:13:22,0.000,0.0,0.0,0.0
04/05/2023,02:14:22,0.000,0.0,0.0,0.0
04/05/2023,02:15:21,0.001,0.0,0.0,0.0
04/05/2023,02:16:21,0.000,0.0,0.0,0.0
04/05/2023,02:17:21,0.000,0.0,0.0,0.0
04/05/2023,02:18:22,0.000,0.0,0.0,0.0
04/05/2023,02:19:21,0.001,0.0,0.0,0.0
04/05/2023,02:20:22,0.000,0.0,0.0,0.0
04/05/2023,02:21:22,0.000,0.0,0.0,0.0
04/05/2023,02:22:22,-0.000,0.0,0.0,0.0
04/05/2023,02:23:22,0.001,0.0,0.0,0.0
04/05/2023,02:24:22,0.000,0.0,0.0,0.0
04/05/2023,02:25:21,0.000,0.0,0.0,0.0
04/05/2023,02:26:21,0.001,0.0,0.0,0.0
04/05/2023,02:27:22,0.000,0.0,0.0,0.0
04/05/2023,02:28:22,-0.001,0.0,0.0,0.0
04/05/2023,02:29:22,0.000,0.0,0.0,0.0
04/05/2023,02:30:21,-0.001,0.0,0.0,0.0
04/05/2023,02:31:21,0.000,0.0,0.0,0.0
04/05/2023,02:32:21,-0.000,0.0,0.0,0.0
04/05/2023,02:33:22,0.000,0.0,0.0,0.0
04/05/2023,02:34:22,0.000,0.0,0.0,0.0
04/05/2023,02:35:22,-0.001,0.0,0.0,0.0
04/05/2023,02:36:22,0.001,0.0,0.0,0.0
04/05/2023,02:37:21,0.001,0.0,0.0,0.0
04/05/2023,02:38:22,0.000,0.0,0.0,0.0
04/05/2023,02:39:22,0.000,0.0,0.0,0.0
04/05/2023,02:40:22,0.000,0.0,0.0,0.0
04/05/2023,02:41:21,0.001,0.0,0.0,0.0
04/05/2023,02:42:22,0.000,0.0,0.0,0.0
04/05/2023,02:43:22,0.001,0.0,0.0,0.0
04/05/2023,02:44:22,0.000,0.0,0.0,0.0
04/05/2023,02:45:22,0.001,0.0,0.0,0.0
04/05/2023,02:46:22,0.000,0.0,0.0,0.0
04/05/2023,02:47:21,0.000,0.0,0.0,0.0
04/05/2023,02:48:22,0.001,0.0,0.0,0.0
04/05/2023,02:49:22,0.000,0.0,0.0,0.0
04/05/2023,02:50:21,0.000,0.0,0.0,0.0
04/05/2023,02:51:22,0.001,0.0,0.0,0.0
04/05/2023,02:52:22,0.000,0.0,0.0,0.0
04/05/2023,02:53:21,0.000,0.0,0.0,0.0
04/05/2023,02:54:22,0.000,0.0,0.0,0.0
04/05/2023,02:55:22,-0.001,0.0,0.0,0.0
04/05/2023,02:56:22,0.000,0.0,0.0,0.0
04/05/2023,02:57:22,0.001,0.0,0.0,0.0
04/05/2023,02:58:21,0.001,0.0,0.0,0.0
04/05/2023,02:59:21,0.000,0.0,0.0,0.0
04/05/2023,03:00:21,0.000,0.0,0.0,0.0
04/05/2023,03:01:22,0.000,0.0,0.0,0.0
04/05/2023,03:02:21,0.000,0.0,0.0,0.0
04/05/2023,03:03:21,-0.001,0.0,0.0,0.0
04/05/2023,03:04:23,0.000,0.0,0.0,0.0
04/05/2023,03:05:23,0.001,0.0,0.0,0.0
04/05/2023,03:06:22,0.000,0.0,0.0,0.0
04/05/2023,03:07:22,0.000,0.0,0.0,0.0
04/05/2023,03:08:21,0.000,0.0,0.0,0.0
04/05/2023,03:09:22,0.000,0.0,0.0,0.0
04/05/2023,03:10:22,0.000,0.0,0.0,0.0
04/05/2023,03:11:22,0.000,0.0,0.0,0.0
04/05/2023,03:12:21,0.000,0.0,0.0,0.0
04/05/2023,03:13:22,0.000,0.0,0.0,0.0
04/05/2023,03:14:22,0.001,0.0,0.0,0.0
04/05/2023,03:15:21,0.000,0.0,0.0,0.0
04/05/2023,03:16:21,0.000,0.0,0.0,0.0
04/05/2023,03:17:21,0.000,0.0,0.0,0.0
04/05/2023,03:18:22,0.000,0.0,0.0,0.0
04/05/2023,03:19:22,0.000,0.0,0.0,0.0
04/05/2023,03:20:22,0.000,0.0,0.0,0.0
04/05/2023,03:21:22,0.000,0.0,0.0,0.0
04/05/2023,03:22:22,0.000,0.0,0.0,0.0
04/05/2023,03:23:22,0.000,0.0,0.0,0.0
04/05/2023,03:24:21,0.001,0.0,0.0,0.0
04/05/2023,03:25:21,0.001,0.0,0.0,0.0
04/05/2023,03:26:22,0.000,0.0,0.0,0.0
04/05/2023,03:27:22,0.001,0.0,0.0,0.0
04/05/2023,03:28:22,0.001,0.0,0.0,0.0
04/05/2023,03:29:22,0.001,0.0,0.0,0.0
04/05/2023,03:30:22,0.001,0.0,0.0,0.0
04/05/2023,03:31:22,0.001,0.0,0.0,0.0
04/05/2023,03:32:21,0.001,0.0,0.0,0.0
04/05/2023,03:33:21,0.001,0.0,0.0,0.0
04/05/2023,03:34:22,0.001,0.0,0.0,0.0
04/05/2023,03:35:22,0.001,0.0,0.0,0.0
04/05/2023,03:36:22,0.001,0.0,0.0,0.0
04/05/2023,03:37:22,0.001,0.0,0.0,0.0
04/05/2023,03:38:22,0.001,0.0,0.0,0.0
04/05/2023,03:39:22,0.001,0.0,0.0,0.0
04/05/2023,03:40:22,0.001,0.0,0.0,0.0
04/05/2023,03:41:22,0.001,0.0,0.0,0.0
04/05/2023,03:42:22,0.001,0.0,0.0,0.0
04/05/2023,03:43:22,0.000,0.0,0.0,0.0
04/05/2023,03:44:22,0.001,0.0,0.0,0.0
04/05/2023,03:45:22,0.001,0.0,0.0,0.0
04/05/2023,03:46:22,0.001,0.0,0.0,0.0
04/05/2023,03:47:22,0.001,0.0,0.0,0.0
04/05/2023,03:48:21,0.001,0.0,0.0,0.0
04/05/2023,03:49:22,0.001,0.0,0.0,0.0
04/05/2023,03:50:22,0.001,0.0,0.0,0.0
04/05/2023,03:51:22,0.001,0.0,0.0,0.0
04/05/2023,03:52:21,0.001,0.0,0.0,0.0
04/05/2023,03:53:22,0.001,0.0,0.0,0.0
04/05/2023,03:54:22,0.001,0.0,0.0,0.0
04/05/2023,03:55:22,0.001,0.0,0.0,0.0
04/05/2023,03:56:22,0.001,0.0,0.0,0.0
04/05/2023,03:57:22,0.001,0.0,0.0,0.0
04/05/2023,03:58:22,0.001,0.0,0.0,0.0
04/05/2023,03:59:21,0.001,0.0,0.0,0.0
04/05/2023,04:00:22,0.001,0.0,0.0,0.0
04/05/2023,04:01:22,0.001,0.0,0.0,0.0
04/05/2023,04:02:22,0.001,0.0,0.0,0.0
04/05/2023,04:03:22,0.001,0.0,0.0,0.0
04/05/2023,04:04:22,0.001,0.0,0.0,0.0
04/05/2023,04:05:22,0.001,0.0,0.0,0.0
04/05/2023,04:06:22,0.001,0.0,0.0,0.0
04/05/2023,04:07:22,0.001,0.0,0.0,0.0
04/05/2023,04:08:22,0.001,0.0,0.0,0.0
04/05/2023,04:09:22,0.001,0.0,0.0,0.0
04/05/2023,04:10:21,0.001,0.0,0.0,0.0
04/05/2023,04:11:22,0.001,0.0,0.0,0.0
04/05/2023,04:12:22,0.001,0.0,0.0,0.0
04/05/2023,04:13:22,0.001,0.0,0.0,0.0
04/05/2023,04:14:22,0.001,0.0,0.0,0.0
04/05/2023,04:15:21,0.001,0.0,0.0,0.0
04/05/2023,04:16:22,0.001,0.0,0.0,0.0
04/05/2023,04:17:22,0.001,0.0,0.0,0.0
04/05/2023,04:18:21,0.001,0.0,0.0,0.0
04/05/2023,04:19:22,0.001,0.0,0.0,0.0
04/05/2023,04:20:22,0.001,0.0,0.0,0.0
04/05/2023,04:21:22,0.001,0.0,0.0,0.0
04/05/2023,04:22:22,0.001,0.0,0.0,0.0
04/05/2023,04:23:22,0.001,0.0,0.0,0.0
04/05/2023,04:24:22,0.001,0.0,0.0,0.0
04/05/2023,04:25:22,0.001,0.0,0.0,0.0
04/05/2023,04:26:22,0.001,0.0,0.0,0.0
04/05/2023,04:27:22,0.001,0.0,0.0,0.0
04/05/2023,04:28:22,0.001,0.0,0.0,0.0
04/05/2023,04:29:22,0.001,0.0,0.0,0.0
04/05/2023,04:30:21,0.001,0.0,0.0,0.0
04/05/2023,04:31:21,0.001,0.0,0.0,0.0
04/05/2023,04:32:22,0.001,0.0,0.0,0.0
04/05/2023,04:33:21,0.002,0.0,0.0,0.0
04/05/2023,04:34:22,0.001,0.0,0.0,0.0
04/05/2023,04:35:23,0.002,0.0,0.0,0.0
04/05/2023,04:36:22,0.002,0.0,0.0,0.0
04/05/2023,04:37:22,0.002,0.0,0.0,0.0
04/05/2023,04:38:22,0.002,0.0,0.0,0.0
04/05/2023,04:39:22,0.002,0.0,0.0,0.0
04/05/2023,04:40:22,0.003,0.0,0.0,0.0
04/05/2023,04:41:22,0.003,0.0,0.0,0.0
04/05/2023,04:42:22,0.003,0.0,0.0,0.0
04/05/2023,04:43:22,0.003,0.0,0.0,0.0
04/05/2023,04:44:22,0.003,0.0,0.0,0.0
04/05/2023,04:45:22,0.003,0.0,0.0,0.0
04/05/2023,04:46:22,0.004,0.0,0.0,0.0
04/05/2023,04:47:22,0.003,0.0,0.0,0.0
04/05/2023,04:48:22,0.004,0.0,0.0,0.0
04/05/2023,04:49:22,0.005,0.0,0.0,0.0
04/05/2023,04:50:22,0.004,0.0,0.0,0.0
04/05/2023,04:51:22,0.004,0.0,0.0,0.0
04/05/2023,04:52:21,0.004,0.0,0.0,0.0
04/05/2023,04:53:22,0.005,0.0,0.0,0.0
04/05/2023,04:54:22,0.005,0.0,0.0,0.0
04/05/2023,04:55:22,0.005,0.0,0.0,0.0
04/05/2023,04:56:22,0.005,0.0,0.0,0.0
04/05/2023,04:57:22,0.005,0.0,0.0,0.0
04/05/2023,04:58:22,0.005,0.0,0.0,0.0
04/05/2023,04:59:22,0.005,0.0,0.0,0.0
04/05/2023,05:00:21,0.006,0.0,0.0,0.0
04/05/2023,05:01:23,0.005,0.0,0.0,0.0
04/05/2023,05:02:22,0.007,0.0,0.0,0.0
04/05/2023,05:03:22,0.006,0.0,0.0,0.0
04/05/2023,05:04:22,0.006,0.0,0.0,0.0
04/05/2023,05:05:22,0.006,0.0,0.0,0.0
04/05/2023,05:06:22,0.006,0.0,0.0,0.0
04/05/2023,05:07:22,0.007,0.0,0.0,0.0
04/05/2023,05:08:21,0.007,0.0,0.0,0.0
04/05/2023,05:09:22,0.006,0.0,0.001,0.001
04/05/2023,05:10:22,0.007,0.0,0.001,0.0
04/05/2023,05:11:22,0.007,0.0,0.001,0.0
04/05/2023,05:12:22,0.008,0.0,0.001,0.0
04/05/2023,05:13:22,0.008,0.0,0.001,0.0
04/05/2023,05:14:22,0.008,0.0,0.001,0.0
04/05/2023,05:15:22,0.009,0.0,0.001,0.0
04/05/2023,05:16:21,0.010,0.0,0.002,0.001
04/05/2023,05:17:22,0.011,0.0,0.002,0.0
04/05/2023,05:18:22,0.012,0.0,0.002,0.0
04/05/2023,05:19:22,0.012,0.0,0.002,0.0
04/05/2023,05:20:22,0.013,0.0,0.002,0.0
04/05/2023,05:21:22,0.013,0.0,0.002,0.0
04/05/2023,05:22:22,0.014,0.0,0.003,0.001
04/05/2023,05:23:22,0.015,0.0,0.003,0.0
04/05/2023,05:24:22,0.016,0.0,0.003,0.0
04/05/2023,05:25:22,0.017,0.0,0.003,0.0
04/05/2023,05:26:22,0.018,0.0,0.004,0.001
04/05/2023,05:27:22,0.018,0.0,0.004,0.0
04/05/2023,05:28:22,0.020,0.0,0.004,0.0
04/05/2023,05:29:22,0.020,0.0,0.005,0.001
04/05/2023,05:30:22,0.021,0.0,0.005,0.0
04/05/2023,05:31:22,0.021,0.0,0.005,0.0
04/05/2023,05:32:22,0.022,0.0,0.006,0.001
04/05/2023,05:33:22,0.023,0.0,0.006,0.0
04/05/2023,05:34:22,0.023,0.0,0.006,0.0
04/05/2023,05:35:22,0.024,0.0,0.007,0.001
04/05/2023,05:36:22,0.025,0.0,0.007,0.0
04/05/2023,05:37:22,0.026,0.0,0.008,0.001
04/05/2023,05:38:22,0.026,0.0,0.008,0.0
04/05/2023,05:39:22,0.027,0.0,0.009,0.001
04/05/2023,05:40:23,0.029,0.0,0.009,0.0
04/05/2023,05:41:23,0.029,0.0,0.01,0.001
04/05/2023,05:42:22,0.030,0.0,0.01,0.0
04/05/2023,05:43:22,0.032,0.0,0.011,0.001
04/05/2023,05:44:22,0.033,0.0,0.011,0.0
04/05/2023,05:45:22,0.035,0.0,0.012,0.001
04/05/2023,05:46:22,0.036,0.0,0.012,0.0
04/05/2023,05:47:22,0.038,0.0,0.013,0.001
04/05/2023,05:48:22,0.040,0.0,0.013,0.0
04/05/2023,05:49:22,0.041,0.0,0.014,0.001
04/05/2023,05:50:22,0.044,0.0,0.015,0.001
04/05/2023,05:51:22,0.045,0.0,0.016,0.001
04/05/2023,05:52:22,0.046,0.0,0.016,0.0
04/05/2023,05:53:22,0.048,0.0,0.017,0.001
04/05/2023,05:54:22,0.049,0.0,0.018,0.001
04/05/2023,05:55:22,0.050,0.0,0.019,0.001
04/05/2023,05:56:22,0.052,0.0,0.02,0.001
04/05/2023,05:57:22,0.053,0.0,0.021,0.001
04/05/2023,05:58:22,0.055,0.0,0.021,0.0
04/05/2023,05:59:22,0.057,0.0,0.022,0.001
04/05/2023,06:00:22,0.058,0.0,0.023,0.001
04/05/2023,06:01:22,0.059,0.0,0.024,0.001
04/05/2023,06:02:22,0.061,0.0,0.025,0.001
04/05/2023,06:03:22,0.063,0.0,0.026,0.001
04/05/2023,06:04:22,0.065,0.0,0.027,0.001
04/05/2023,06:05:22,0.066,0.0,0.028,0.001
04/05/2023,06:06:22,0.069,0.0,0.03,0.002
04/05/2023,06:07:22,0.072,0.0,0.031,0.001
04/05/2023,06:08:22,0.073,0.0,0.032,0.001
04/05/2023,06:09:22,0.076,0.0,0.033,0.001
04/05/2023,06:10:22,0.077,0.0,0.034,0.001
04/05/2023,06:11:23,0.079,0.0,0.036,0.002
04/05/2023,06:12:23,0.082,0.0,0.037,0.001
04/05/2023,06:13:20,0.084,0.0,0.038,0.001
04/05/2023,06:14:22,0.087,0.0,0.04,0.002
04/05/2023,06:15:22,0.088,0.0,0.041,0.001
04/05/2023,06:16:22,0.091,0.0,0.043,0.002
04/05/2023,06:17:22,0.093,0.0,0.044,0.001
04/05/2023,06:18:22,0.095,0.0,0.046,0.002
04/05/2023,06:19:22,0.098,0.0,0.048,0.002
04/05/2023,06:20:22,0.100,0.0,0.049,0.001
04/05/2023,06:21:22,0.102,0.0,0.051,0.002
04/05/2023,06:22:22,0.105,0.0,0.053,0.002
04/05/2023,06:23:22,0.109,0.0,0.054,0.001
04/05/2023,06:24:22,0.111,0.0,0.056,0.002
04/05/2023,06:25:23,0.115,0.0,0.058,0.002
04/05/2023,06:26:22,0.113,0.0,0.06,0.002
04/05/2023,06:27:22,0.115,0.0,0.062,0.002
04/05/2023,06:28:22,0.116,0.0,0.064,0.002
04/05/2023,06:29:22,0.117,0.0,0.066,0.002
04/05/2023,06:30:22,0.121,0.0,0.068,0.002
04/05/2023,06:31:22,0.123,0.0,0.07,0.002
04/05/2023,06:32:22,0.124,0.0,0.072,0.002
04/05/2023,06:33:22,0.127,0.0,0.074,0.002
04/05/2023,06:34:22,0.130,0.0,0.076,0.002
04/05/2023,06:35:23,0.132,0.0,0.078,0.002
04/05/2023,06:36:22,0.135,0.0,0.08,0.002
04/05/2023,06:37:22,0.137,0.0,0.083,0.003
04/05/2023,06:38:22,0.140,0.0,0.085,0.002
04/05/2023,06:39:22,0.145,0.0,0.087,0.002
04/05/2023,06:40:22,0.149,0.0,0.09,0.003
04/05/2023,06:41:22,0.151,0.0,0.092,0.002
04/05/2023,06:42:22,0.154,0.0,0.095,0.003
04/05/2023,06:43:22,0.158,0.0,0.098,0.003
04/05/2023,06:44:22,0.163,0.0,0.1,0.002
04/05/2023,06:45:22,0.168,0.0,0.103,0.003
04/05/2023,06:46:22,0.169,0.0,0.106,0.003
04/05/2023,06:47:22,0.171,0.0,0.109,0.003
04/05/2023,06:48:22,0.177,0.0,0.111,0.002
04/05/2023,06:49:22,0.182,0.0,0.114,0.003
04/05/2023,06:50:23,0.186,0.0,0.118,0.004
04/05/2023,06:51:22,0.187,0.0,0.121,0.003
04/05/2023,06:52:22,0.191,0.0,0.124,0.003
04/05/2023,06:53:22,0.188,0.0,0.127,0.003
04/05/2023,06:54:22,0.194,0.0,0.13,0.003
04/05/2023,06:55:23,0.206,0.0,0.133,0.003
04/05/2023,06:56:22,0.210,0.0,0.137,0.004
04/05/2023,06:57:22,0.215,0.0,0.14,0.003
04/05/2023,06:58:22,0.220,1.0,0.144,0.004
04/05/2023,06:59:22,0.214,0.0,0.148,0.004
04/05/2023,07:00:22,0.201,0.0,0.151,0.003
04/05/2023,07:01:22,0.204,0.0,0.155,0.004
04/05/2023,07:02:22,0.213,0.0,0.158,0.003
04/05/2023,07:03:22,0.232,1.0,0.162,0.004
04/05/2023,07:04:22,0.239,1.0,0.166,0.004
04/05/2023,07:05:22,0.225,1.0,0.17,0.004
04/05/2023,07:06:22,0.216,0.0,0.173,0.003
04/05/2023,07:07:22,0.214,0.0,0.177,0.004
04/05/2023,07:08:23,0.210,0.0,0.18,0.003
04/05/2023,07:09:22,0.213,0.0,0.184,0.004
04/05/2023,07:10:22,0.215,0.0,0.187,0.003
04/05/2023,07:11:22,0.221,1.0,0.191,0.004
04/05/2023,07:12:22,0.220,1.0,0.195,0.004
04/05/2023,07:13:22,0.220,1.0,0.198,0.003
04/05/2023,07:14:22,0.219,1.0,0.202,0.004
04/05/2023,07:15:22,0.216,0.0,0.206,0.004
04/05/2023,07:16:22,0.209,0.0,0.209,0.003
04/05/2023,07:17:23,0.205,0.0,0.213,0.004
04/05/2023,07:18:22,0.203,0.0,0.216,0.003
04/05/2023,07:19:22,0.194,0.0,0.219,0.003
04/05/2023,07:20:22,0.191,0.0,0.223,0.004
04/05/2023,07:21:22,0.186,0.0,0.226,0.003
04/05/2023,07:22:23,0.165,0.0,0.229,0.003
04/05/2023,07:23:23,0.162,0.0,0.231,0.002
04/05/2023,07:24:22,0.158,0.0,0.234,0.003
04/05/2023,07:25:22,0.162,0.0,0.237,0.003
04/05/2023,07:26:22,0.170,0.0,0.24,0.003
04/05/2023,07:27:22,0.179,0.0,0.242,0.002
04/05/2023,07:28:22,0.193,0.0,0.246,0.004
04/05/2023,07:29:23,0.207,0.0,0.249,0.003
04/05/2023,07:30:22,0.224,1.0,0.253,0.004
04/05/2023,07:31:22,0.237,1.0,0.256,0.003
04/05/2023,07:32:22,0.252,1.0,0.26,0.004
04/05/2023,07:33:23,0.268,1.0,0.265,0.005
04/05/2023,07:34:22,0.288,1.0,0.269,0.004
04/05/2023,07:35:22,0.304,1.0,0.274,0.005
04/05/2023,07:36:22,0.319,1.0,0.28,0.006
04/05/2023,07:37:22,0.337,1.0,0.285,0.005
04/05/2023,07:38:22,0.359,1.0,0.291,0.006
04/05/2023,07:39:22,0.377,1.0,0.297,0.006
04/05/2023,07:40:22,0.387,1.0,0.303,0.006
04/05/2023,07:41:22,0.419,1.0,0.31,0.007
04/05/2023,07:42:22,0.400,1.0,0.317,0.007
04/05/2023,07:43:22,0.408,1.0,0.324,0.007
04/05/2023,07:44:22,0.419,1.0,0.331,0.007
04/05/2023,07:45:22,0.470,1.0,0.338,0.007
04/05/2023,07:46:22,0.484,1.0,0.346,0.008
04/05/2023,07:47:22,0.479,1.0,0.354,0.008
04/05/2023,07:48:22,0.447,1.0,0.362,0.008
04/05/2023,07:49:23,0.442,1.0,0.369,0.007
04/05/2023,07:50:22,0.450,1.0,0.377,0.008
04/05/2023,07:51:22,0.470,1.0,0.384,0.007
04/05/2023,07:52:23,0.483,1.0,0.392,0.008
04/05/2023,07:53:22,0.468,1.0,0.4,0.008
04/05/2023,07:54:22,0.493,1.0,0.408,0.008
04/05/2023,07:55:22,0.537,1.0,0.417,0.009
04/05/2023,07:56:22,0.505,1.0,0.426,0.009
04/05/2023,07:57:22,0.479,1.0,0.434,0.008
04/05/2023,07:58:23,0.484,1.0,0.442,0.008
04/05/2023,07:59:22,0.486,1.0,0.45,0.008
04/05/2023,08:00:22,0.455,1.0,0.458,0.008
04/05/2023,08:01:22,0.437,1.0,0.465,0.007
04/05/2023,08:02:22,0.440,1.0,0.473,0.008
04/05/2023,08:03:22,0.438,1.0,0.48,0.007
04/05/2023,08:04:23,0.436,1.0,0.487,0.007
04/05/2023,08:05:22,0.455,1.0,0.495,0.008
04/05/2023,08:06:23,0.471,1.0,0.503,0.008
04/05/2023,08:07:22,0.480,1.0,0.511,0.008
04/05/2023,08:08:22,0.488,1.0,0.519,0.008
04/05/2023,08:09:22,0.502,1.0,0.527,0.008
04/05/2023,08:10:22,0.518,1.0,0.536,0.009
04/05/2023,08:11:22,0.498,1.0,0.544,0.008
04/05/2023,08:12:22,0.495,1.0,0.552,0.008
04/05/2023,08:13:22,0.497,1.0,0.561,0.009
04/05/2023,08:14:22,0.510,1.0,0.569,0.008
04/05/2023,08:15:22,0.501,1.0,0.577,0.008
04/05/2023,08:16:22,0.490,1.0,0.586,0.009
04/05/2023,08:17:22,0.488,1.0,0.594,0.008
04/05/2023,08:18:23,0.530,1.0,0.602,0.008
04/05/2023,08:19:22,0.506,1.0,0.611,0.009
04/05/2023,08:20:23,0.518,1.0,0.619,0.008
04/05/2023,08:21:23,0.527,1.0,0.628,0.009
04/05/2023,08:22:23,0.522,1.0,0.637,0.009
04/05/2023,08:23:22,0.542,1.0,0.646,0.009
04/05/2023,08:24:22,0.564,1.0,0.655,0.009
04/05/2023,08:25:22,0.603,1.0,0.665,0.01
04/05/2023,08:26:22,0.622,1.0,0.675,0.01
04/05/2023,08:27:22,0.731,2.0,0.687,0.012
04/05/2023,08:28:23,0.776,2.0,0.699,0.012
04/05/2023,08:29:22,0.792,2.0,0.712,0.013
04/05/2023,08:30:22,0.801,2.0,0.725,0.013
04/05/2023,08:31:23,0.803,2.0,0.738,0.013
04/05/2023,08:32:22,0.805,2.0,0.752,0.014
04/05/2023,08:33:22,0.808,2.0,0.765,0.013
04/05/2023,08:34:22,0.814,2.0,0.779,0.014
04/05/2023,08:35:22,0.821,2.0,0.792,0.013
04/05/2023,08:36:22,0.825,2.0,0.806,0.014
04/05/2023,08:37:22,0.829,2.0,0.82,0.014
04/05/2023,08:38:22,0.830,2.0,0.833,0.013
04/05/2023,08:39:22,0.843,2.0,0.847,0.014
04/05/2023,08:40:23,0.846,2.0,0.861,0.014
04/05/2023,08:41:23,0.854,2.0,0.876,0.015
04/05/2023,08:42:22,0.861,2.0,0.89,0.014
04/05/2023,08:43:22,0.867,2.0,0.904,0.014
04/05/2023,08:44:23,0.874,2.0,0.919,0.015
04/05/2023,08:45:23,0.885,2.0,0.934,0.015
04/05/2023,08:46:22,0.895,2.0,0.948,0.014
04/05/2023,08:47:22,0.897,2.0,0.963,0.015
04/05/2023,08:48:23,0.899,2.0,0.977,0.014
04/05/2023,08:49:23,0.911,2.0,0.992,0.015
04/05/2023,08:50:22,0.916,2.0,1.008,0.016
04/05/2023,08:51:22,0.934,2.0,1.023,0.015
04/05/2023,08:52:23,0.936,2.0,1.039,0.016
04/05/2023,08:53:22,0.954,2.0,1.054,0.015
04/05/2023,08:54:22,0.958,2.0,1.07,0.016
04/05/2023,08:55:23,0.955,2.0,1.086,0.016
04/05/2023,08:56:22,0.929,2.0,1.102,0.016
04/05/2023,08:57:22,0.910,2.0,1.117,0.015
04/05/2023,08:58:23,0.942,2.0,1.133,0.016
04/05/2023,08:59:23,0.938,2.0,1.148,0.015
04/05/2023,09:00:23,0.961,2.0,1.164,0.016
04/05/2023,09:01:23,0.986,2.0,1.18,0.016
04/05/2023,09:02:22,0.961,2.0,1.196,0.016
04/05/2023,09:03:22,0.989,2.0,1.213,0.017
04/05/2023,09:04:22,0.969,2.0,1.229,0.016
04/05/2023,09:05:23,0.954,2.0,1.245,0.016
04/05/2023,09:06:22,0.926,2.0,1.261,0.016
04/05/2023,09:07:23,0.951,2.0,1.276,0.015
04/05/2023,09:08:23,0.926,2.0,1.292,0.016
04/05/2023,09:09:22,0.906,2.0,1.307,0.015
04/05/2023,09:10:22,1.018,2.0,1.324,0.017
04/05/2023,09:11:22,1.047,2.0,1.341,0.017
04/05/2023,09:12:22,1.091,3.0,1.359,0.018
04/05/2023,09:13:23,1.106,3.0,1.377,0.018
04/05/2023,09:14:22,1.125,3.0,1.395,0.018
04/05/2023,09:15:22,1.133,3.0,1.414,0.019
04/05/2023,09:16:22,1.137,3.0,1.433,0.019
04/05/2023,09:17:23,1.129,3.0,1.452,0.019
04/05/2023,09:18:23,1.095,3.0,1.47,0.018
04/05/2023,09:19:22,1.121,3.0,1.489,0.019
04/05/2023,09:20:22,1.151,3.0,1.508,0.019
04/05/2023,09:21:22,1.163,3.0,1.527,0.019
04/05/2023,09:22:23,1.175,3.0,1.547,0.02
04/05/2023,09:23:23,1.165,3.0,1.566,0.019
04/05/2023,09:24:22,1.174,3.0,1.586,0.02
04/05/2023,09:25:22,1.176,3.0,1.605,0.019
04/05/2023,09:26:22,1.152,3.0,1.625,0.02
04/05/2023,09:27:23,1.119,3.0,1.644,0.019
04/05/2023,09:28:22,1.132,3.0,1.662,0.018
04/05/2023,09:29:22,1.069,2.0,1.681,0.019
04/05/2023,09:30:22,1.017,2.0,1.698,0.017
04/05/2023,09:31:23,1.071,2.0,1.715,0.017
04/05/2023,09:32:23,1.047,2.0,1.733,0.018
04/05/2023,09:33:23,1.021,2.0,1.75,0.017
04/05/2023,09:34:23,1.020,2.0,1.767,0.017
04/05/2023,09:35:23,0.999,2.0,1.784,0.017
04/05/2023,09:36:23,0.964,2.0,1.801,0.017
04/05/2023,09:37:22,1.065,2.0,1.818,0.017
04/05/2023,09:38:22,1.119,3.0,1.835,0.017
04/05/2023,09:39:23,1.096,3.0,1.853,0.018
04/05/2023,09:40:23,1.216,3.0,1.872,0.019
04/05/2023,09:41:22,1.295,3.0,1.893,0.021
04/05/2023,09:42:22,1.367,3.0,1.916,0.023
04/05/2023,09:43:22,1.391,3.0,1.939,0.023
04/05/2023,09:44:22,1.319,3.0,1.961,0.022
04/05/2023,09:45:23,1.332,3.0,1.983,0.022
04/05/2023,09:46:26,1.055,2.0,2.004,0.021
04/05/2023,09:47:23,1.218,3.0,2.021,0.017
04/05/2023,09:48:22,1.032,2.0,2.04,0.019
04/05/2023,09:49:23,0.996,2.0,2.057,0.017
04/05/2023,09:50:23,0.991,2.0,2.074,0.017
04/05/2023,09:51:22,0.963,2.0,2.09,0.016
04/05/2023,09:52:22,0.942,2.0,2.107,0.017
04/05/2023,09:53:23,1.066,2.0,2.123,0.016
04/05/2023,09:54:22,0.938,2.0,2.139,0.016
04/05/2023,09:55:22,1.119,3.0,2.157,0.018
04/05/2023,09:56:22,1.168,3.0,2.176,0.019
04/05/2023,09:57:22,1.246,3.0,2.195,0.019
04/05/2023,09:58:23,1.338,3.0,2.217,0.022
04/05/2023,09:59:22,1.166,3.0,2.238,0.021
04/05/2023,10:00:22,1.390,3.0,2.26,0.022